Flag for Russia Weather past 2 weeks in Pyatigorsk, Russia

Now
63 °F

Passing clouds.


Feels Like: 63 °F
Forecast: 52 / 57 °F
Wind: 13 mph from East

Location: Mineral'Nye Vody

Current Time: Sep 17, 2014 at 9:50:27 PM

Latest Report: Sep 17, 2014 at 9:00 PM


Visibility: N/A

Pressure: 30.07 "Hg

Humidity: 39%

Dew point: 37 °F

Location of PyatigorskLocation

Historic Weather in Pyatigorsk — Graph

°F

Pyatigorsk temperature yesterday

Maximum temperature yesterday: 75 °F (at 3:00 PM)
Minimum temperature yesterday: 59 °F (at 11:00 PM)
Average temperature yesterday: 66 °F

Past Weeks' High & Low Weather Summary

 TemperatureHumidityPressure
High86 °F (Sep 3, 5:30 PM)100% (Sep 6, 8:00 AM)30.07 "Hg (Sep 6, 8:00 AM)
Low52 °F (Sep 17, 6:00 AM)26% (Sep 17, 3:30 PM)29.80 "Hg (Sep 7, 9:30 PM)
Average70 °F67%29.93 "Hg
* Reported Sep 2 8:00 PM — Sep 17 8:30 PM, Pyatigorsk, Weather by CustomWeather, © 2014

Note: Actual official high and low records may vary slightly from our data, if they occured in-between our weather recording intervals... More about our weather records

Advertising

Pyatigorsk weather history for previous 24 hours

 ConditionsComfort  
Time TempWeatherWind HumidityBarometerVisibility
8:30 PM
Sep 17
66 °FPassing clouds.15 mph40%30.07 "HgN/A
8:00 PM66 °FPartly sunny.17 mph43%30.04 "HgN/A
7:30 PM68 °FPartly sunny.17 mph43%30.04 "HgN/A
7:00 PM70 °FPartly sunny.17 mph40%30.01 "HgN/A
6:30 PM72 °FPartly sunny.15 mph38%30.01 "HgN/A
6:00 PM73 °FScattered clouds.15 mph33%30.01 "HgN/A
5:30 PM73 °FScattered clouds.15 mph33%30.01 "HgN/A
5:00 PM75 °FScattered clouds.13 mph31%30.01 "HgN/A
4:30 PM77 °FScattered clouds.15 mph30%29.98 "HgN/A
4:00 PM75 °FScattered clouds.13 mph29%29.98 "HgN/A
3:30 PM77 °FPassing clouds.13 mph26%29.98 "HgN/A
3:00 PM77 °FPassing clouds.10 mph28%29.98 "HgN/A
2:30 PM75 °FPassing clouds.13 mph27%29.98 "HgN/A
2:00 PM75 °FPassing clouds.10 mph29%30.01 "HgN/A
1:30 PM75 °FPassing clouds.10 mph29%30.01 "HgN/A
1:00 PM73 °FPassing clouds.8 mph36%30.01 "HgN/A
12:30 PM73 °FPassing clouds.6 mph38%30.01 "HgN/A
12:00 PM72 °FPassing clouds.6 mph41%30.01 "HgN/A
11:30 AM70 °FPassing clouds.3 mph53%30.01 "HgN/A
11:00 AM68 °FSunny.3 mph60%30.01 "HgN/A
10:30 AM66 °FSunny.1 mph68%30.01 "HgN/A
10:00 AM63 °FScattered clouds.3 mph77%30.01 "HgN/A
9:30 AM61 °FScattered clouds.1 mph88%30.01 "HgN/A
9:00 AM57 °FScattered clouds.3 mph100%30.01 "HgN/A
8:30 AM55 °FScattered clouds.No wind100%30.01 "Hg4 mi
8:00 AM54 °FScattered clouds.No wind100%30.01 "Hg4 mi
7:30 AM52 °FFog.No wind94%30.01 "Hg1 mi
7:00 AM52 °FFog.No wind94%30.01 "Hg3 mi
6:30 AM54 °FPassing clouds.3 mph94%29.98 "Hg4 mi
6:00 AM52 °FFog.3 mph100%29.98 "Hg2 mi
5:30 AM54 °FFog.No wind94%29.98 "Hg3 mi
5:00 AM55 °FPassing clouds.No wind94%29.98 "Hg4 mi
4:30 AM55 °FPassing clouds.No wind94%29.98 "Hg4 mi
4:00 AM55 °FPassing clouds.No wind94%29.98 "Hg4 mi
3:30 AM57 °FPassing clouds.3 mph94%29.98 "HgN/A
3:00 AM55 °FSprinkles. Overcast.3 mph94%29.98 "HgN/A
2:30 AM57 °FSprinkles. Overcast.No wind94%29.98 "HgN/A
2:00 AM57 °FSprinkles. Overcast.1 mph94%29.98 "HgN/A
1:30 AM57 °FSprinkles. Overcast.3 mph94%29.98 "HgN/A
1:00 AM57 °FSprinkles. Overcast.3 mph88%29.98 "HgN/A
12:30 AM57 °FSprinkles. Overcast.1 mph88%29.98 "HgN/A
12:00 AM59 °FSprinkles. Overcast.6 mph88%29.98 "HgN/A
11:30 PM
Sep 16
59 °FSprinkles. Overcast.3 mph88%29.98 "HgN/A
11:00 PM59 °FSprinkles. Overcast.1 mph88%29.98 "HgN/A
10:30 PM61 °FSprinkles. Overcast.1 mph83%29.95 "HgN/A
10:00 PM61 °FSprinkles. Overcast.No wind77%29.95 "HgN/A
9:30 PM61 °FSprinkles. Passing clouds.No wind77%29.95 "HgN/A
9:00 PM63 °FSprinkles. Passing clouds.1 mph64%29.95 "HgN/A
Weather by CustomWeather, © 2014

See weather overviewHow to use our weather pages